DateTimeUTC,F1_A11,F1_S11,BsB_S11,BsG_S11,BsR_S11,BbsB_S11,BbsG_S11,BbsR_S11,BaB_A11,BaG_A11,BaR_A11,Tu_S11,T_S11,Uu_S11,U_S11,P_S11,T1_A11
2021-08-13T18:00:00Z,00000200,20000000,,,,,,,0000.10,0000.12,0000.20,18.4,24.9,12.1,08.1,0673.3,30.9
2021-08-13T18:01:00Z,00000200,20000000,,,,,,,-000.06,-000.01,-000.35,18.4,24.9,12.1,08.1,0673.3,30.9
2021-08-13T18:02:00Z,00000200,20000000,,,,,,,-000.13,-000.01,-000.07,18.4,24.9,12.1,08.1,0673.3,30.9
2021-08-13T18:03:00Z,00000200,60000000,,,,,,,0012.44,0012.00,0009.75,18.4,24.9,12.1,08.1,0673.3,30.9
2021-08-13T18:04:00Z,00000200,40000000,0064.86,0056.68,0041.47,0007.99,0006.05,0005.02,0016.56,0014.96,0012.38,18.5,24.7,12.0,08.2,0674.1,30.9
2021-08-13T18:05:00Z,00000200,00000000,0064.38,0057.27,0041.78,0007.92,0006.28,0004.77,0016.09,0015.22,0012.31,18.6,24.7,12.0,08.3,0674.1,30.9
2021-08-13T18:06:00Z,00000200,00000000,0065.77,0057.23,0042.70,0007.78,0005.89,0005.12,0016.56,0015.31,0012.57,18.6,24.7,12.1,08.3,0674.2,30.9
2021-08-13T18:07:00Z,00000200,00000000,0063.86,0057.37,0041.45,0006.84,0005.53,0004.95,0016.37,0015.19,0012.40,18.5,24.7,12.1,08.4,0674.4,30.9
2021-08-13T18:08:00Z,00000200,00000000,0065.47,0057.03,0041.60,0007.42,0006.21,0004.73,0015.78,0015.29,0011.99,18.6,24.7,12.1,08.3,0674.3,30.9
2021-08-13T18:09:00Z,00000200,00000000,0064.76,0057.50,0042.38,0007.32,0005.88,0005.32,0017.05,0015.54,0012.67,18.5,24.7,12.1,08.3,0674.5,30.9
2021-08-13T18:10:00Z,00000200,00000000,0065.83,0057.57,0042.40,0007.28,0006.16,0005.10,0016.34,0015.50,0012.90,18.5,24.7,12.1,08.3,0674.4,30.9
2021-08-13T18:11:00Z,00000200,00000000,0065.17,0056.70,0042.71,0007.74,0006.06,0004.77,0016.27,0014.94,0012.35,18.5,24.7,12.1,08.3,0674.4,30.9
2021-08-13T18:12:00Z,00000200,00000000,0065.30,0057.20,0042.20,0007.50,0006.17,0005.16,0016.62,0015.45,0012.41,18.6,24.7,12.1,08.3,0674.3,30.9
2021-08-13T18:13:00Z,00000200,00000000,0064.71,0056.91,0042.12,0008.12,0006.03,0005.15,0016.42,0015.54,0012.82,18.6,24.7,12.2,08.4,0674.4,30.9
2021-08-13T18:14:00Z,00000200,00000000,0065.28,0057.22,0042.37,0007.91,0005.93,0004.54,0016.79,0015.40,0012.54,18.6,24.7,12.1,08.4,0674.3,30.9
2021-08-13T18:15:00Z,00000200,00000000,0064.51,0057.37,0042.46,0007.98,0006.31,0004.61,0016.51,0015.67,0012.62,18.6,24.7,12.1,08.3,0674.3,30.9
2021-08-13T18:16:00Z,00000200,00000000,0066.88,0057.51,0043.26,0008.20,0005.98,0005.56,0016.99,0015.70,0013.09,18.6,24.7,12.1,08.4,0674.3,30.9
2021-08-13T18:17:00Z,00000200,00000000,0065.72,0057.37,0042.33,0008.16,0005.94,0005.19,0016.48,0015.72,0012.23,18.6,24.7,12.1,08.4,0674.3,30.9
2021-08-13T18:18:00Z,00000200,00000000,0066.13,0058.90,0042.39,0008.03,0006.31,0004.76,0016.46,0015.53,0012.62,18.6,24.7,12.0,08.3,0674.4,30.9
2021-08-13T18:19:00Z,00000200,00000000,0065.32,0057.52,0042.95,0008.25,0006.29,0005.05,0016.95,0015.66,0012.80,18.6,24.7,12.2,08.4,0674.4,30.9
2021-08-13T18:20:00Z,00000200,00000000,0066.47,0058.95,0042.94,0008.03,0006.55,0005.28,0016.88,0015.58,0012.90,18.6,24.7,12.1,08.4,0674.4,30.9
2021-08-13T18:21:00Z,00000200,00000000,0067.51,0058.76,0042.98,0008.23,0005.89,0005.14,0016.89,0015.82,0012.88,18.6,24.7,12.0,08.3,0674.4,30.9
2021-08-13T18:22:00Z,00000200,00000000,0067.72,0058.62,0042.41,0007.94,0006.22,0005.22,0016.78,0016.07,0012.88,18.6,24.7,12.0,08.3,0674.3,30.9
2021-08-13T18:23:00Z,00000200,00000000,0067.66,0058.00,0043.41,0008.05,0006.27,0005.06,0016.89,0015.22,0012.33,18.6,24.7,12.0,08.3,0674.4,30.9
2021-08-13T18:24:00Z,00000200,00000000,0066.39,0057.70,0042.20,0008.37,0006.01,0005.15,0016.69,0015.52,0013.04,18.6,24.7,12.1,08.4,0674.4,30.9
2021-08-13T18:25:00Z,00000200,00000000,0067.02,0057.27,0042.61,0008.11,0006.36,0005.02,0016.80,0015.82,0012.67,18.6,24.7,12.1,08.4,0674.4,30.9
2021-08-13T18:26:00Z,00000200,00000000,0066.75,0057.28,0042.13,0007.91,0006.12,0005.16,0016.45,0015.51,0012.81,18.6,24.7,12.2,08.4,0674.4,30.9
2021-08-13T18:27:00Z,00000200,00000000,0066.29,0058.17,0042.76,0007.13,0006.18,0005.16,0016.82,0015.69,0012.20,18.6,24.7,12.2,08.4,0674.4,30.9
2021-08-13T18:28:00Z,00000200,00000000,0065.68,0057.64,0043.11,0007.18,0006.40,0005.40,0016.65,0015.63,0013.10,18.6,24.6,12.2,08.4,0674.5,30.9
2021-08-13T18:29:00Z,00000200,00000000,0065.89,0057.61,0042.40,0008.55,0006.31,0005.10,0016.79,0015.73,0012.52,18.6,24.7,12.2,08.4,0674.4,30.9
2021-08-13T18:30:00Z,00000200,00000000,0065.90,0058.00,0042.54,0007.95,0005.87,0005.01,0016.53,0015.46,0012.88,18.6,24.6,12.2,08.4,0674.4,30.9
2021-08-13T18:31:00Z,00000200,00000000,0065.21,0057.69,0042.91,0008.30,0006.15,0004.93,0016.92,0015.46,0012.49,18.6,24.6,12.2,08.4,0674.4,30.9
2021-08-13T18:32:00Z,00000200,00000000,0064.95,0058.65,0042.88,0008.22,0006.55,0005.25,0016.48,0015.64,0012.76,18.6,24.6,12.2,08.4,0674.5,30.9
2021-08-13T18:33:00Z,00000200,00000000,0064.54,0057.34,0041.71,0007.55,0006.59,0004.80,0016.10,0015.42,0012.23,18.6,24.6,12.2,08.4,0674.4,30.9
2021-08-13T18:34:00Z,00000200,00000000,0065.02,0056.25,0041.91,0007.96,0006.01,0004.99,0016.47,0014.87,0012.10,18.6,24.6,12.3,08.5,0674.4,30.9
2021-08-13T18:35:00Z,00000200,00000000,0066.25,0056.57,0042.13,0007.32,0005.87,0004.55,0016.20,0015.44,0013.04,18.6,24.6,12.3,08.5,0674.4,30.8
2021-08-13T18:36:00Z,00000200,00000000,0063.97,0056.36,0041.25,0007.66,0005.86,0004.88,0016.09,0014.84,0012.01,18.6,24.6,12.2,08.4,0674.3,30.9
2021-08-13T18:37:00Z,00000200,00000000,0064.55,0056.24,0041.99,0008.22,0006.17,0004.79,0015.83,0015.22,0012.21,18.6,24.6,12.3,08.5,0674.3,30.9
2021-08-13T18:38:00Z,00000200,00000000,0064.68,0056.47,0041.56,0007.23,0006.01,0005.03,0016.39,0015.11,0012.16,18.6,24.6,12.1,08.4,0674.4,30.9
2021-08-13T18:39:00Z,00000200,00000000,0065.00,0056.50,0041.90,0007.50,0005.97,0004.94,0016.38,0015.36,0012.17,18.6,24.6,12.3,08.5,0674.4,30.9
2021-08-13T18:40:00Z,00000200,00000000,0065.19,0056.50,0041.66,0007.62,0006.24,0004.73,0015.97,0015.08,0013.20,18.6,24.6,12.3,08.5,0674.4,30.9
2021-08-13T18:41:00Z,00000200,00000000,0065.34,0058.13,0042.23,0008.38,0006.12,0005.08,0017.22,0015.54,0012.38,18.6,24.6,12.4,08.6,0674.5,30.9
2021-08-13T18:42:00Z,00000200,00000000,0065.07,0057.66,0041.66,0008.57,0005.95,0004.96,0016.03,0015.29,0012.29,18.6,24.6,12.4,08.5,0674.4,30.9
2021-08-13T18:43:00Z,00000200,00000000,0067.15,0058.01,0042.51,0007.61,0006.03,0004.70,0016.71,0015.66,0012.53,18.6,24.6,12.3,08.5,0674.4,30.9
2021-08-13T18:44:00Z,00000200,00000000,0067.65,0057.35,0042.67,0008.14,0006.08,0005.00,0016.40,0015.65,0012.89,18.7,24.7,12.3,08.5,0674.5,30.9
2021-08-13T18:45:00Z,00000200,00000000,0067.94,0058.82,0043.39,0008.59,0006.30,0004.92,0017.14,0015.61,0012.45,18.7,24.7,12.3,08.5,0674.5,30.9
2021-08-13T18:46:00Z,00000200,00000000,0067.31,0058.60,0042.69,0008.10,0006.13,0005.09,0016.52,0015.37,0012.74,18.7,24.7,12.2,08.5,0674.4,30.9
2021-08-13T18:47:00Z,00000200,00000000,0066.58,0058.89,0042.61,0008.06,0005.85,0005.25,0016.37,0015.50,0012.81,18.7,24.7,12.3,08.5,0674.4,30.9
2021-08-13T18:48:00Z,00000200,00000000,0069.10,0059.93,0043.93,0007.93,0006.26,0005.41,0017.20,0015.86,0012.88,18.7,24.7,12.3,08.5,0674.3,30.9
2021-08-13T18:49:00Z,00000200,00000000,0069.62,0060.45,0044.09,0008.49,0006.51,0005.22,0016.84,0015.72,0012.84,18.7,24.7,12.3,08.5,0674.3,30.9
2021-08-13T18:50:00Z,00000200,00000000,0070.70,0061.79,0045.94,0007.98,0006.53,0005.83,0018.01,0016.70,0013.41,18.7,24.7,12.3,08.5,0674.3,30.9
2021-08-13T18:51:00Z,00000200,00000000,0071.69,0063.14,0045.97,0008.34,0006.92,0005.66,0017.34,0016.78,0013.78,18.7,24.7,12.3,08.6,0674.3,30.9
2021-08-13T18:52:00Z,00000200,00000000,0074.57,0064.01,0046.99,0008.54,0006.41,0005.52,0018.44,0016.97,0013.73,18.7,24.7,12.3,08.5,0674.3,30.9
2021-08-13T18:53:00Z,00000200,00000000,0072.95,0064.82,0048.33,0008.48,0006.69,0005.66,0018.37,0017.00,0013.59,18.7,24.7,12.3,08.5,0674.3,30.9
2021-08-13T18:54:00Z,00000200,00000000,0074.39,0065.04,0047.83,0009.17,0006.81,0005.53,0018.36,0017.16,0014.36,18.7,24.7,12.3,08.5,0674.3,30.9
2021-08-13T18:55:00Z,00000200,00000000,0073.23,0064.22,0047.81,0008.67,0006.99,0006.02,0018.24,0017.29,0013.90,18.7,24.7,12.3,08.5,0674.2,30.9
2021-08-13T18:56:00Z,00000200,00000000,0074.95,0065.01,0048.18,0008.35,0006.69,0005.66,0018.58,0017.42,0014.35,18.7,24.7,12.2,08.5,0674.3,30.9
2021-08-13T18:57:00Z,00000200,40000000,,,,,,,0005.84,0005.28,0004.63,18.7,24.7,12.6,08.7,0674.3,30.9
2021-08-13T18:58:00Z,00000200,60000000,,,,,,,0000.25,0000.35,-000.48,18.5,24.8,12.3,08.3,0673.4,30.9
2021-08-13T18:59:00Z,00000200,20000000,,,,,,,-000.19,-000.22,0000.16,18.4,24.9,12.3,08.3,0673.3,30.9
